Orbital Elements at Epoch 2459200.5 (2020-Dec-17.0) TDB
Reference: JPL 25 (heliocentric ecliptic J2000)
Element | Value | Uncertainty (1-sigma) | Units |
e | .147377174922928 | 7.3102e-08 | |
a | 3.167802581848421 | 3.4352e-08 | au |
q | 2.700940786622044 | 2.488e-07 | au |
i | 28.43106751321668 | 5.6979e-06 | deg |
node | 58.95304906685423 | 1.0051e-05 | deg |
peri | 161.8509780298103 | 2.4272e-05 | deg |
M | 260.3224888240375 | 2.7301e-05 | deg |
tp | 2459770.704019475409 (2022-Jul-10.20401948) | 0.00016316 | TDB |
period | 2059.375726674939 5.64 | 3.3498e-05 9.171e-08 | d yr |
n | .174810256980767 | 2.8435e-09 | deg/d |
Q | 3.634664377074799 | 3.9415e-08 | au |
|
| | Orbit Determination Parameters
Additional Information
|